{"data":{"norad_id":48976,"intl_designator":"2021-060K","name":"ONEWEB-0258","alt_names":[],"object_type":"PAYLOAD","status":"ACTIVE","operator":null,"country":"UK","launch_date":"2021-07-01","launch_site_code":"VOSTO","launch_vehicle":null,"mission":null,"orbit_class":"UNKNOWN","rcs_meters":null,"size_class":null,"mass_kg":null,"dimensions":null,"purposes":["comms"],"wikipedia_slug":null,"has_3d_model":false,"image_url":null,"decayed_at":null,"tle_current":{"epoch":"2026-09-20T04:14:14.396064Z","epoch_age_seconds":49874,"freshness":"FRESH","line1":"1 48976U 21060K   26263.17655551 -.00000029  00000+0 -10834-3 0  9998","line2":"2 48976  87.9147 209.9225 0001937  76.3443 283.7904 13.16594371252099","mean_motion":13.16594371,"eccentricity":0.0001937,"inclination_deg":87.9147,"raan_deg":209.9225,"arg_perigee_deg":76.3443,"mean_anomaly_deg":283.7904,"bstar":-0.00010834,"rev_number":25209,"period_min":109.37309407652,"perigee_km":1196.2887792592,"apogee_km":1199.2236802964,"semimajor_km":7575.8932297778,"source":"CELESTRAK","updated_at":"2026-09-20T09:00:44.624740Z"}}}